Flag for Gambia Weather past 2 weeks in Banjul, Gambia

86 °F

Partly sunny.

Feels Like: 99 °F
Forecast: N/A
Wind: 9 mph from South

Location: Banjul / Yundum

Current Time: Oct 7, 2015 at 4:05:09 PM

Latest Report: Oct 7, 2015 at 3:00 PM

Visibility: N/A

Pressure: 29.89 "Hg

Humidity: 79%

Dew point: 79 °F

Location of BanjulLocation

Historic Weather in Banjul — Graph


Banjul temperature yesterday

Maximum temperature yesterday: 91 °F (at 2:00 PM)
Minimum temperature yesterday: 73 °F (at 3:00 AM)
Average temperature yesterday: 81 °F

Past Weeks' High & Low Weather Summary

High93 °F (Oct 5, 3:00 PM)100% (Sep 23, 5:00 AM)32.52 "Hg (Sep 23, 5:00 AM)
Low72 °F (Sep 27, 9:00 PM)20% (Sep 30, 1:00 PM)29.74 "Hg (Sep 29, 4:00 PM)
Average81 °F87%29.86 "Hg
* Reported Sep 22 3:00 PM — Oct 7 3:00 PM, Banjul, Weather by CustomWeather, © 2015

Note: Actual official high and low records may vary slightly from our data, if they occured in-between our weather recording intervals... More about our weather records


Banjul weather history for previous 24 hours

Time TempWeatherWind HumidityBarometerVisibility
3:00 PM
Wed, Oct 7
86 °FPartly sunny.9 mph79%29.89 "HgN/A
2:00 PM82 °FBroken clouds.6 mph84%29.92 "HgN/A
1:00 PM82 °FBroken clouds.12 mph84%29.95 "HgN/A
12:00 PM82 °FWarm.13 mph84%29.95 "HgN/A
11:00 AM79 °FBroken clouds.14 mph89%29.95 "HgN/A
10:00 AM79 °FBroken clouds.6 mph89%29.95 "HgN/A
9:00 AM77 °FBroken clouds.No wind94%29.92 "HgN/A
8:00 AM75 °FBroken clouds.No wind94%29.89 "HgN/A
7:00 AM73 °FBroken clouds.No wind94%29.89 "HgN/A
6:00 AM75 °FPartly cloudy.8 mph89%29.92 "HgN/A
5:00 AM75 °FPartly cloudy.15 mph94%29.92 "HgN/A
4:00 AM75 °FLight rain. Partly cloudy.No wind94%29.89 "Hg6 mi
3:00 AM75 °FPartly cloudy.No wind94%29.89 "HgN/A
2:00 AM75 °FPartly cloudy.No wind94%29.89 "HgN/A
1:00 AM75 °FPassing clouds.No wind94%29.89 "HgN/A
12:00 AM73 °FLight rain. Passing clouds.No wind89%29.95 "Hg6 mi
11:00 PM
Tue, Oct 6
73 °FLight rain. Passing clouds.6 mph94%29.95 "Hg6 mi
10:00 PM73 °FThunderstorms. Passing clouds.No wind94%29.95 "Hg5 mi
9:00 PM73 °FThunderstorms. Passing clouds.No wind94%29.95 "Hg5 mi
8:00 PM73 °FThunderstorms. Passing clouds.12 mph94%29.92 "Hg5 mi
7:00 PM82 °FThunderstorms. Partly cloudy.23 mph84%29.89 "Hg6 mi
6:00 PM86 °FBroken clouds.8 mph75%29.86 "HgN/A
5:00 PM88 °FBroken clouds.12 mph66%29.86 "HgN/A
4:00 PM88 °FBroken clouds.12 mph70%29.86 "HgN/A
Weather by CustomWeather, © 2015

See weather overviewHow to use our weather pages